Total_Precipitation_Accumulation
0.01 0.02 0.05 0.06 0.07 0.10 0.15 0.18 0.26 0.31 0.24 0.25 0.43 0.61 0.72 0.84 1.07 1.21 1.23 1.17 1.22 1.53 1.98 2.16 2.47 2.96 3.77 4.53 5.25 5.38 5.70 5.19 4.55 4.07 3.71 3.60 3.43 3.13 3.02 2.91 2.85 2.70 2.43 2.34
0.02 0.06 0.08 0.04 0.05 0.08 0.12 0.18 0.27 0.28 0.20 0.23 0.45 0.75 0.90 0.96 0.95 1.03 1.07 1.13 1.23 1.59 2.04 2.39 2.92 3.32 3.36 3.91 4.63 4.69 4.41 4.22 3.80 3.46 3.31 3.14 3.10 2.78 2.62 2.50 2.59 2.37 2.20 2.26
0.05 0.08 0.06 0.04 0.07 0.12 0.15 0.18 0.22 0.21 0.20 0.29 0.51 0.96 1.25 1.11 0.84 0.75 0.81 0.91 1.04 1.38 1.90 2.32 2.74 3.19 3.17 3.57 3.66 3.30 3.15 3.26 3.23 3.08 2.97 2.84 2.86 2.68 2.44 2.30 2.31 2.12 1.93 1.97
0.04 0.04 0.04 0.05 0.07 0.08 0.12 0.11 0.10 0.11 0.19 0.37 0.54 1.17 1.57 1.30 0.96 0.78 0.81 0.98 1.04 1.15 1.36 1.64 1.98 2.40 2.61 2.71 2.64 2.62 2.60 2.67 2.88 2.88 2.66 2.50 2.25 2.19 2.15 2.07 2.08 2.07 1.82 1.75
0.04 0.04 0.04 0.05 0.06 0.06 0.08 0.06 0.07 0.13 0.19 0.38 0.60 0.96 1.43 1.37 1.28 1.09 0.94 0.99 0.94 0.97 1.05 1.19 1.28 1.49 1.78 2.04 2.12 2.12 2.42 2.55 2.57 2.55 2.51 2.57 2.32 2.17 2.13 2.26 2.46 2.38 2.05 1.72
0.06 0.06 0.05 0.05 0.05 0.07 0.07 0.07 0.16 0.31 0.45 0.81 0.80 0.85 1.26 1.19 1.10 1.09 0.94 0.80 0.75 0.78 0.82 1.00 1.04 1.07 1.21 1.36 1.51 1.65 1.96 2.20 2.26 2.21 2.21 2.29 2.34 2.33 2.16 2.13 2.21 2.13 1.98 1.79
0.14 0.12 0.10 0.06 0.06 0.07 0.08 0.12 0.42 0.83 1.13 1.29 0.86 0.80 1.01 0.90 0.90 1.01 0.79 0.55 0.51 0.60 0.65 0.83 0.82 0.86 0.97 1.00 1.12 1.35 1.58 1.75 1.85 1.92 2.00 2.07 2.28 2.26 2.05 1.86 1.92 1.90 1.75 1.67
0.16 0.19 0.11 0.05 0.06 0.07 0.08 0.10 0.26 0.48 0.64 0.85 0.86 1.19 1.11 0.75 0.72 0.65 0.48 0.38 0.36 0.50 0.58 0.63 0.58 0.60 0.75 0.82 0.91 1.10 1.26 1.36 1.47 1.68 1.89 1.89 2.04 1.92 1.82 1.95 1.84 1.74 1.54 1.58
0.07 0.07 0.06 0.05 0.06 0.08 0.07 0.06 0.09 0.15 0.23 0.53 0.94 1.31 1.10 0.72 0.66 0.51 0.37 0.31 0.37 0.41 0.54 0.53 0.47 0.49 0.53 0.58 0.67 0.87 1.16 1.25 1.28 1.37 1.58 1.69 1.69 1.72 1.83 2.02 1.94 1.78 1.71 1.61
0.04 0.03 0.05 0.05 0.06 0.07 0.07 0.07 0.08 0.11 0.22 0.42 0.81 1.21 1.34 1.09 0.78 0.53 0.44 0.42 0.49 0.50 0.63 0.67 0.54 0.51 0.52 0.51 0.60 0.70 0.86 1.10 1.29 1.28 1.27 1.31 1.57 1.63 1.77 1.87 1.80 1.78 1.75 1.77
0.04 0.02 0.04 0.05 0.07 0.08 0.09 0.09 0.10 0.12 0.19 0.32 0.65 0.94 0.88 0.86 0.68 0.54 0.54 0.62 0.50 0.50 0.58 0.65 0.49 0.47 0.47 0.50 0.56 0.66 0.79 1.07 1.27 1.19 1.22 1.34 1.51 1.60 1.65 1.82 1.81 1.76 1.77 1.85
0.05 0.03 0.04 0.08 0.12 0.11 0.10 0.11 0.12 0.16 0.18 0.20 0.35 0.60 0.54 0.61 0.60 0.69 0.71 0.67 0.59 0.59 0.61 0.65 0.57 0.64 0.66 0.69 0.71 0.78 0.88 1.04 1.15 1.17 1.25 1.32 1.43 1.52 1.60 1.66 1.74 1.81 1.80 1.90
0.06 0.05 0.07 0.22 0.32 0.23 0.15 0.11 0.12 0.14 0.14 0.18 0.36 0.61 0.54 0.61 0.63 0.68 0.70 0.67 0.73 0.77 0.72 0.69 0.72 0.85 0.84 0.87 0.99 1.01 1.05 1.07 1.16 1.30 1.31 1.28 1.36 1.36 1.42 1.52 1.60 1.74 1.83 1.92
0.07 0.07 0.08 0.22 0.34 0.38 0.28 0.18 0.17 0.14 0.14 0.18 0.28 0.52 0.51 0.63 0.89 0.81 0.83 0.80 0.73 0.76 0.76 0.69 0.76 0.86 0.91 0.96 1.04 1.08 1.06 1.08 1.18 1.24 1.29 1.31 1.31 1.37 1.48 1.58 1.64 1.72 1.74 1.83
0.09 0.07 0.06 0.10 0.18 0.21 0.23 0.21 0.19 0.14 0.13 0.18 0.28 0.43 0.59 0.70 0.94 0.82 0.80 0.87 0.95 0.84 0.79 0.71 0.76 0.85 1.01 1.04 0.99 1.00 1.06 1.12 1.26 1.26 1.23 1.29 1.40 1.44 1.49 1.52 1.56 1.61 1.64 1.64
0.15 0.11 0.11 0.11 0.14 0.15 0.17 0.19 0.16 0.12 0.10 0.11 0.22 0.44 0.64 0.74 0.82 0.79 0.68 0.73 0.95 0.87 0.78 0.77 0.87 1.02 1.03 0.95 0.92 0.95 0.92 1.00 1.18 1.28 1.39 1.48 1.49 1.43 1.50 1.53 1.55 1.56 1.62 1.70
0.28 0.23 0.22 0.21 0.17 0.19 0.27 0.22 0.19 0.16 0.14 0.15 0.28 0.46 0.63 0.79 0.74 0.80 0.76 0.71 0.70 0.68 0.70 0.78 0.86 0.92 0.98 1.01 0.98 0.91 0.83 0.96 1.26 1.35 1.38 1.57 1.68 1.60 1.65 1.67 1.67 1.64 1.65 1.78
0.39 0.40 0.32 0.28 0.31 0.38 0.31 0.26 0.25 0.27 0.28 0.26 0.30 0.43 0.65 0.86 0.81 0.78 0.79 0.77 0.69 0.57 0.66 0.78 0.80 0.81 0.85 0.89 0.88 0.86 0.91 0.98 1.25 1.46 1.54 1.79 1.96 1.84 1.83 1.83 1.85 1.88 1.94 1.96
0.40 0.48 0.48 0.43 0.45 0.48 0.41 0.38 0.40 0.48 0.59 0.50 0.51 0.65 0.71 0.70 0.74 0.82 0.76 0.70 0.65 0.63 0.68 0.73 0.82 0.88 0.98 1.07 1.06 1.04 1.14 1.26 1.45 1.64 1.76 1.98 2.21 2.33 2.29 2.15 2.21 2.29 2.27 2.23
0.36 0.47 0.57 0.59 0.66 0.75 0.69 0.56 0.51 0.66 1.07 0.88 0.71 0.74 0.76 0.77 0.98 0.99 0.72 0.63 0.61 0.64 0.74 0.88 1.05 1.05 1.12 1.27 1.20 1.22 1.37 1.62 1.78 1.81 1.84 2.00 2.21 2.31 2.29 2.31 2.50 2.61 2.51 2.40
0.56 0.58 0.61 0.67 0.77 0.78 0.71 0.64 0.67 1.18 1.57 1.12 0.95 0.96 1.01 1.02 0.98 0.84 0.77 0.78 0.70 0.68 0.78 0.84 0.87 1.01 1.15 1.28 1.36 1.50 1.57 1.69 1.76 1.78 1.81 1.94 2.17 2.44 2.40 2.44 2.53 2.61 2.60 2.59
0.77 0.78 0.76 0.80 1.04 1.18 0.77 0.69 1.06 1.43 1.30 1.34 1.30 1.27 1.22 1.07 0.90 0.78 0.78 0.84 0.76 0.75 0.81 0.81 0.80 0.92 1.12 1.34 1.56 1.67 1.67 1.71 1.80 1.79 1.76 1.85 2.13 2.26 2.31 2.46 2.51 2.61 2.70 2.68
0.92 1.01 0.99 1.08 1.31 1.21 0.96 1.03 1.08 1.16 1.28 1.33 1.26 1.27 1.24 1.18 1.06 0.95 0.92 0.89 0.86 0.92 0.91 0.92 0.93 1.01 1.14 1.32 1.56 1.77 1.81 1.79 1.71 1.66 1.64 1.73 1.90 2.00 2.15 2.25 2.20 2.26 2.38 2.36
1.10 0.95 1.17 1.50 1.49 1.31 1.16 1.10 1.08 1.08 1.14 1.10 1.05 1.01 1.00 1.01 0.99 0.97 1.00 1.05 1.07 1.11 1.07 1.07 1.12 1.16 1.22 1.31 1.50 1.69 1.71 1.73 1.71 1.62 1.57 1.67 1.89 1.99 2.07 2.12 2.10 2.15 2.20 2.27
1.39 1.31 1.52 1.91 1.87 1.66 1.51 1.32 1.26 1.14 1.14 1.13 1.03 0.99 0.94 0.86 0.87 0.88 0.87 0.95 1.02 1.07 1.10 1.10 1.15 1.22 1.24 1.29 1.48 1.62 1.66 1.72 1.78 1.74 1.68 1.77 1.87 1.95 2.12 2.18 2.21 2.22 2.21 2.18
1.37 1.58 1.89 2.14 1.95 1.81 1.76 1.41 1.35 1.40 1.29 1.16 1.15 1.11 1.01 0.88 0.84 0.86 0.85 0.89 0.94 1.03 1.14 1.19 1.27 1.28 1.25 1.27 1.41 1.54 1.71 1.86 1.91 1.87 1.84 1.80 1.74 1.82 1.87 1.92 1.87 1.83 1.76 1.74